Weather History for Anchorage Merrill, AK

Change the Weather History Date:

Sunday, December 15, 2013

  Actual Average Record
Temperature  
Mean Temperature 8 °F -  
Max Temperature 19 °F 21 °F 39 °F (2011)
Min Temperature -2 °F 9 °F -8 °F (1999)
Degree Days  
Heating Degree Days 56    
Moisture  
Dew Point 6 °F    
Average Humidity 75    
Maximum Humidity 84    
Minimum Humidity 54    
Precipitation  
Precipitation 0.02 in - - ()
Snow  
Snow 0.00 in - - ()
Snow Depth 18.00 in    
Sea Level Pressure  
Sea Level Pressure 29.57 in    
Wind  
Wind Speed 3 mph (South)    
Max Wind Speed 12 mph    
Max Gust Speed -    
Visibility 6 miles    
Events Snow    
Averages and records for this station are not official NWS values.
T = Trace of Precipitation, MM = Missing Value Source: NWS Daily Summary

Daily Weather History Graph

Daily Weather History Graph

Search for Another Location

Airport:

Trip Planner

Search our weather history database for the weather conditions in past years. The results will help you decide how hot, cold, wet, or windy it might be!

Date:

Astronomy

Dec. 15, 2013 Rise Set
Actual Time 10:09 AM AKST 3:40 PM AKST
Civil Twilight 9:07 AM AKST 4:42 PM AKST
Nautical Twilight 8:07 AM AKST 5:41 PM AKST
Astronomical Twilight 7:14 AM AKST 6:35 PM AKST
Moon 3:16 PM AKST (12/15) 8:09 AM AKST (12/15)
Length of Visible Light 7h 34m
Length of Day
5h 30m
Waxing Gibbous, 98% of the Moon is Illuminated
Dec 15
Waxing Gibbous
Dec 17
Full
Dec 25
Last Quarter
Jan 1
New
Jan 7
First Quarter

Hourly Weather History & Observations

Time (AKST) Temp. Windchill Dew Point Humidity Pressure Visibility Wind Dir Wind Speed Gust Speed Precip Events Conditions
12:53 AM 19.0 °F 13.9 °F 14.0 °F 81% 29.15 in 3.0 mi South 3.5 mph - 0.00 in Snow Light Snow
1:53 AM 18.0 °F - 12.9 °F 81% 29.19 in 4.0 mi Calm Calm - 0.00 in Snow Light Snow
2:53 AM 19.0 °F 6.8 °F 14.0 °F 81% 29.25 in 3.0 mi SSE 11.5 mph - 0.01 in Snow Light Snow
3:53 AM 18.0 °F 6.9 °F 12.9 °F 81% 29.29 in 4.0 mi SSE 9.2 mph - 0.00 in Snow Light Snow
4:53 AM 16.0 °F 8.8 °F 10.9 °F 81% 29.31 in 9.0 mi SSE 4.6 mph - 0.00 in Snow Light Snow
5:53 AM 10.0 °F - 6.1 °F 84% 29.35 in 9.0 mi Calm Calm - 0.01 in Snow Light Snow
6:33 AM 17.6 °F - 12.2 °F 79% 29.36 in 7.0 mi Calm Calm - 0.00 in Snow Light Snow
6:53 AM 17.1 °F - 10.9 °F 77% 29.38 in 3.0 mi Calm Calm - 0.00 in Snow Light Snow
7:53 AM 15.1 °F - 9.0 °F 77% 29.42 in 4.0 mi North - - 0.00 in Snow Light Snow
8:53 AM 15.1 °F - 8.1 °F 74% 29.46 in 5.0 mi North - - 0.00 in Snow Light Snow
9:53 AM 15.1 °F - 9.0 °F 77% 29.49 in 4.0 mi North - - 0.00 in Snow Light Snow
10:53 AM 15.1 °F 7.7 °F 9.0 °F 77% 29.53 in 5.0 mi NNW 4.6 mph - 0.00 in Snow Light Snow
11:53 AM 15.1 °F - 8.1 °F 74% 29.57 in 5.0 mi North - - 0.00 in Snow Light Snow
12:35 PM 15.8 °F - 8.6 °F 73% 29.58 in 2.5 mi North - - 0.00 in Snow Light Snow
12:40 PM 15.8 °F - 8.6 °F 73% 29.58 in 1.0 mi North - - 0.00 in Snow Light Snow
12:53 PM 14.0 °F - 8.1 °F 77% 29.60 in 1.0 mi North - - 0.00 in Snow Light Snow
1:03 PM 14.0 °F - 8.6 °F 79% 29.60 in 0.8 mi North - - 0.00 in Snow Light Snow
1:20 PM 14.0 °F - 8.6 °F 79% 29.60 in 1.2 mi North - - 0.00 in Snow Light Snow
1:53 PM 14.0 °F - 8.1 °F 77% 29.63 in 2.5 mi North - - 0.00 in Snow Light Snow
2:10 PM 15.8 °F - 8.6 °F 73% 29.62 in 3.0 mi North - - 0.00 in Snow Light Snow
2:53 PM 15.1 °F - 8.1 °F 74% 29.65 in 3.0 mi North - - 0.00 in   Haze
3:53 PM 14.0 °F - 6.1 °F 71% 29.69 in 9.0 mi North - - 0.00 in   Overcast
4:53 PM 14.0 °F - 1.9 °F 59% 29.73 in 10.0 mi North - - N/A   Overcast
5:53 PM 12.9 °F 5.2 °F -0.9 °F 54% 29.76 in 10.0 mi NW 4.6 mph - N/A   Overcast
6:53 PM 10.0 °F - -0.9 °F 61% 29.80 in 10.0 mi Calm Calm - N/A   Clear
7:53 PM 6.1 °F - -2.0 °F 69% 29.82 in 10.0 mi Calm Calm - N/A   Overcast
8:53 PM 1.0 °F - -6.0 °F 72% 29.86 in 10.0 mi Calm Calm - N/A   Partly Cloudy
9:53 PM -2.9 °F - -8.0 °F 79% 29.89 in 10.0 mi Calm Calm - N/A   Scattered Clouds
10:53 PM -2.0 °F - -8.0 °F 76% 29.91 in 10.0 mi Calm Calm - N/A   Scattered Clouds
11:53 PM 1.0 °F - -5.1 °F 75% 29.94 in 10.0 mi Calm Calm - N/A   Mostly Cloudy